Regional Weather Roundup
Issued by NWS Northern Indiana

Home | Current Version | Previous Version | Text Only | Print | Product List | Glossary Off
Versions: 1 2 3 4 5 6 7 8 9 10 11 12 13 14 15 16 17 18 19 20 21 22 23 24 25 26 27 28 29 30 31 32 33 34 35 36 37 38 39 40 41 42 43 44 45 46 47 48 49 50

000
ASUS43 KIWX 081810
RWRIWX

KIWX WEATHER ROUNDUP
NATIONAL WEATHER SERVICE NORTHERN INDIANA
100 PM EST MON FEB 08 2016

NOTE: "FAIR" INDICATES FEW OR NO CLOUDS BELOW 12,000 FEET WITH NO
SIGNIFICANT WEATHER AND/OR OBSTRUCTIONS TO VISIBILITY.

* THESE STATIONS ARE NOT UNDER NWS QUALITY CONTROL. THEY ALSO MAY NOT
  REPORT WEATHER SUCH AS PRECIPITATION OR FOG.

INZ001>027-081900-
NORTHERN INDIANA

CITY           SKY/WX    TMP DP  RH WIND       PRES   REMARKS
GARY*          CLOUDY    32  21  64 W18       29.67S WCI  20
VALPARAISO     CLOUDY    31  24  75 W13       29.65F WCI  21
6HR MIN TEMP:  28; 6HR MAX TEMP:  33; 6HR PCP: TRACE;

MICHIGAN CITY* CLOUDY    32  27  80 W7        29.66S WCI  26
LAPORTE*       CLOUDY    33  29  83 NW10      29.65S WCI  25
6HR MIN TEMP:  28; 6HR MAX TEMP:  34;

KNOX*            N/A    N/A N/A N/A MISG        N/A
SOUTH BEND     CLOUDY    31  28  89 NW9       29.63F WCI  23
6HR MIN TEMP:  25; 6HR MAX TEMP:  32;

ELKHART*         N/A     36  30  80 W10       29.62F
GOSHEN         CLOUDY    36  29  75 W10       29.61F
6HR MIN TEMP:  27; 6HR MAX TEMP:  37;

MONTICELLO*    CLOUDY    30  22  73 W14G20    29.67S WCI  19
6HR MIN TEMP:  30; 6HR MAX TEMP:  32;

LOGANSPORT*    MIX PCPN  30  27  86 NW9       29.66S WCI  22
ROCHESTER*     CLOUDY    36  30  80 W7        29.64S
WARSAW*        CLOUDY    36  28  75 W12       29.61F
ANGOLA*        CLOUDY    34  28  80 W5        29.60F WCI  30
FORT WAYNE     PTSUNNY   37  29  72 W12       29.62F
6HR MIN TEMP:  31; 6HR MAX TEMP:  37; 6HR PCP: TRACE;

HUNTINGTON*    CLOUDY    37  24  59 W5        29.61F
6HR MIN TEMP:  29; 6HR MAX TEMP:  39;

PERU/GRISSOM   DRIZZLE   33  32  96 W10       29.62F WCI  25
6HR MIN TEMP:  31; 6HR MAX TEMP:  35; 6HR PCP: TRACE;

MARION*        MOSUNNY   37  23  55 W13       29.63F
6HR MIN TEMP:  -1; 6HR MAX TEMP:  59;


$$
INZ028>050-081900-
CENTRAL INDIANA

CITY           SKY/WX    TMP DP  RH WIND       PRES   REMARKS
LAFAYETTE      CLOUDY    28  24  85 W10G22    29.69S FOG     WCI  19
6HR MIN TEMP:  28; 6HR MAX TEMP:  32;

KOKOMO*          N/A     36  30  80 W10       29.64F
6HR MIN TEMP:  32; 6HR MAX TEMP:  37;

MUNCIE*        CLOUDY    38  30  73 W9        29.62F
6HR MIN TEMP:  34; 6HR MAX TEMP:  38; 6HR PCP: TRACE;

INDIANAPOLIS   CLOUDY    38  29  70 W7        29.63F
6HR MIN TEMP:  33; 6HR MAX TEMP:  39; 6HR PCP: TRACE;


$$
MIZ043>046-050>051-056>058-064>065-071>073-077>080-081900-
SOUTHWEST LOWER MICHIGAN

CITY           SKY/WX    TMP DP  RH WIND       PRES   REMARKS
BATTLE CREEK   CLOUDY    35  28  75 SW9       29.60F WCI  28
6HR MIN TEMP:  25; 6HR MAX TEMP:  36;

BENTON HARBOR  CLOUDY    34  30  85 W12       29.62F WCI  25
6HR MIN TEMP:  30; 6HR MAX TEMP:  35;

COLDWATER*     PTSUNNY   35  29  79 W8        29.59F WCI  29
6HR MIN TEMP:  27; 6HR MAX TEMP:  39;

HILLSDALE*     CLOUDY    37  29  71 W7        29.57F
6HR MIN TEMP:  29; 6HR MAX TEMP:  37;

HOLLAND        CLOUDY    39  31  72 SW12      29.60F
6HR MIN TEMP:  29; 6HR MAX TEMP:  40;

GRAND RAPIDS   PTSUNNY   38  28  67 W7        29.59F
6HR MIN TEMP:  27; 6HR MAX TEMP:  39;

KALAMAZOO      CLOUDY    36  28  73 SW3       29.60F
6HR MIN TEMP:  25; 6HR MAX TEMP:  36;

STURGIS*       CLOUDY    35  28  76 NW7       29.59F WCI  29
6HR MIN TEMP:  26; 6HR MAX TEMP:  35;

THREE RIVERS*  CLOUDY    36  30  77 W3        29.61F
6HR MIN TEMP:  26; 6HR MAX TEMP:  37;


$$
OHZ001>008-015>018-024>025-081900-
NORTHWEST OHIO

CITY           SKY/WX    TMP DP  RH WIND       PRES   REMARKS
DEFIANCE       CLOUDY    41  28  60 W9        29.60F
6HR MIN TEMP:  31; 6HR MAX TEMP:  42;

FINDLAY        PTSUNNY   43  27  53 NW7       29.58F
6HR MIN TEMP:  35; 6HR MAX TEMP:  43;

TOLEDO EXPRESS CLOUDY    40  28  62 W8        29.58F
6HR MIN TEMP:  30; 6HR MAX TEMP:  41;

TOLEDO METCALF PTSUNNY   41  28  60 NW8       29.59F
6HR MIN TEMP:  33; 6HR MAX TEMP:  41;

LIMA           CLOUDY    40  31  70 W9        29.59F
6HR MIN TEMP:  33; 6HR MAX TEMP:  41;


$$
AND FOR LAKE MICHIGAN COASTAL AND OPEN LAKE BUOY OBSERVATIONS

STATION/POSITION TEMP    WIND        PRES    VSBY  WAVE
                 AIR SEA DIR/SP/G                  HT/PER
                 (F)     (DEG/KT/KT) (MB)    (MI)  (FT/S)
CALUMET HARBOR    31     270/  7/ 12 1004.1R
MICHIGAN CITY     31     240/ 16/ 17   N/A
BURNS HARBOR      31     290/ 14/ 17 1005.1S
SAINT JOSEPH      33     250/ 12/ 15 1004.1F

$$
&&



USA.gov is the U.S. government's official web portal to all federal, state and local government web resources and services.